Location: Cardiff
(53.7833°N, 113.6000°W)
Time: 19:24:07
(UTC+00:00)

RS-15 - Pass Details

Date: 08 December 2023
Orbit: 1893 x 2151 km, 64.8° (Epoch: 24 February)

Event Time Altitude Azimuth Distance (km) Brightness Sun altitude
Rises 06:54:07 0° 265° (W) 5,625 10.5 -58.3°
Reaches altitude 10° 06:57:48 10° 271° (W) 4,599 10.0 -58.5°
Enters shadow 06:57:55 10° 271° (W) 4,563 10.0 -58.5°
Exits shadow 07:19:11 14° 59° (ENE) 4,046 9.7 -58.9°
Drops below altitude 10° 07:20:30 10° 62° (ENE) 4,400 10.0 -58.9°
Sets 07:23:56 0° 68° (ENE) 5,369 10.5 -58.9°
